Regional Weather Roundup
Issued by NWS

Home | Current Version | Previous Version | Text Only | Print | Product List | Glossary Off
Versions: 1 2 3 4 5 6 7 8 9 10 11 12 13 14 15 16 17 18 19 20 21 22 23 24 25 26 27 28 29 30 31 32 33 34 35 36 37 38 39 40 41 42 43 44 45 46 47 48 49 50

000
ASUS43 KLOT 280403
RWRIL

ILLINOIS REGIONAL WEATHER ROUNDUP
NATIONAL WEATHER SERVICE CHICAGO/ROMEOVILLE IL
1000 PM CST MON FEB 27 2017

NOTE: "FAIR" INDICATES FEW OR NO CLOUDS BELOW 12,000 FEET WITH NO
SIGNIFICANT WEATHER AND/OR OBSTRUCTIONS TO VISIBILITY.

* THESE STATIONS ARE NOT UNDER NWS QUALITY CONTROL. THEY ALSO MAY NOT
  REPORT WEATHER SUCH AS PRECIPITATION OR FOG.

ILZ001-002-007-009-015-016-024-280500-
NORTHWEST ILLINOIS

CITY           SKY/WX    TMP DP  RH WIND       PRES   REMARKS
MOLINE         CLOUDY    50  35  56 SE10      29.91F
STERLING*      LGT RAIN  44  38  79 E7        29.96F
$$

ILZ003-004-008-010-011-017-018-280500-
NORTH CENTRAL ILLINOIS

CITY           SKY/WX    TMP DP  RH WIND       PRES   REMARKS
ROCKFORD       CLOUDY    46  33  60 SE12      30.00F
FREEPORT*      CLOUDY    41  34  76 E6        29.99S
ROCHELLE*      MOCLDY    42  36  79 SE9       29.99S
DE KALB*       PTCLDY    44  36  74 SE13      30.01S
PERU*          CLOUDY    47  37  69 S16G25    29.99F
$$

ILZ005-006-012>014-019>023-280500-
NORTHEAST ILLINOIS

CITY           SKY/WX    TMP DP  RH WIND       PRES   REMARKS
CHICAGO-OHARE  CLOUDY    47  36  65 SE12      30.03F
CHICAGO-MIDWAY CLOUDY    49  36  61 SE9       30.04F
AURORA         CLOUDY    45  36  70 SE10      30.02F
LANSING*       PTCLDY    45  40  82 SE10      30.05F
JOLIET*        CLOUDY    48  40  74 SE7       30.04R
WAUKEGAN       CLOUDY    42  34  73 SE12      30.03F
DUPAGE AIRPORT CLOUDY    45  34  65 SE8       30.01F
KANKAKEE*      CLOUDY    45  38  79 SE9       30.05F
WHEELING       PTCLDY    44  34  67 SE7       30.04F
MORRIS*        CLOUDY    48  40  72 SE15      30.01S
ROMEOVILLE*    PTCLDY    46  41  83 S15       30.03S
NORTHERLY ISL    N/A     42  36  79 SE7         N/A
$$

LMZ740>746-280500-
SOUTHERN LAKE MICHIGAN

STATION/POSITION SKY/WX   TEMP    WIND        PRES    VSBY  WAVE
                          AIR SEA DIR/SP/G                  HT/PER
                          (F)     (DEG/KT/KT) (MB)    (MI)  (FT/S)
HARRISON CRIB              43     150/ 19/ 21   N/A
BURNHAM HARBOR             42     140/  6/  8   N/A
CALUMET HARBOR             47     140/ 10/ 15 1017.2F
BURNS HARBOR               47     170/ 13/ 20 1018.6F
MICHIGAN CITY              47     130/ 11/ 13   N/A
$$

ILZ025>027-034>036-040-047-049-050-058-095>099-280500-
WEST-CENTRAL ILLINOIS

CITY           SKY/WX    TMP DP  RH WIND       PRES   REMARKS
QUINCY         PTCLDY    52  42  69 SE12      29.88F
GALESBURG*     CLOUDY    51  38  63 SE10G16   29.91F
MACOMB*        CLOUDY    52  40  65 SE12      29.94F
JACKSONVILLE*  CLOUDY    55  46  71 SE15      29.94S
PITTSFIELD*    CLOUDY    55  46  73 SE12      29.92F
$$

ILZ028>032-037-038-041>044-048-051>054-059>061-280500-
CENTRAL ILLINOIS

CITY           SKY/WX    TMP DP  RH WIND       PRES   REMARKS
PONTIAC        CLOUDY    47  43  87 SE10      30.04R
BLOOMINGTON    LGT RAIN  48  42  80 SE22      30.01F
DECATUR        CLOUDY    50  45  83 SE6       30.04R
PEORIA         CLOUDY    52  42  69 SE12      29.97F
LACON*         CLOUDY    48  39  71 S15       29.99F
LINCOLN*       CLOUDY    51  47  85 SE15G21   29.98F
SPRINGFIELD    CLOUDY    55  45  68 SE16G24   29.97F
TAYLORVILLE    CLOUDY    52  44  76 SE13      29.99F
$$

ILZ033-039-045-046-055>057-062-063-280500-
EAST-CENTRAL ILLINOIS

CITY           SKY/WX    TMP DP  RH WIND       PRES   REMARKS
CHAMPAIGN      LGT RAIN  47  41  80 SE14      30.06S
RANTOUL*       PTCLDY    48  44  85 SE10      30.06S
MATTOON        MOCLDY    49  44  83 SE14G22   30.03F
PARIS*         CLOUDY    47  43  88 SE8       30.08F
$$

ILZ079-100>102-280500-
SOUTHWEST ILLINOIS

CITY           SKY/WX    TMP DP  RH WIND       PRES   REMARKS
ALTON          PTCLDY    55  48  76 SE15      29.97F
BELLEVILLE     CLOUDY    55  48  78 VRB6      29.98F
CAHOKIA*       CLOUDY    58  47  66 S10       29.98F
SPARTA*        CLOUDY    55  47  74 S7        30.03S
$$

ILZ064>066-069>071-074>076-080>082-084>086-088>090-092>094-280500-
SOUTH-CENTRAL ILLINOIS

CITY           SKY/WX    TMP DP  RH WIND       PRES   REMARKS
CARBONDALE     CLOUDY    57  48  72 S15       30.05S
CAIRO*         MOCLDY    56  47  70 SE12      30.08R
EFFINGHAM*     PTCLDY    49  46  87 E10       30.05F
MARION         CLOUDY    57  48  72 S14       30.06F
MT. VERNON     CLOUDY    53  45  74 SE9       30.04F
CENTRALIA*     CLOUDY    54  47  77 SE8       30.02F
SALEM*         MOCLDY    54  45  72 SE10      30.03F
METROPOLIS*    PTCLDY    56  46  68 CALM      30.10R
$$

ILZ067-068-072-073-078-083-087-091-280500-
SOUTHEAST ILLINOIS

CITY           SKY/WX    TMP DP  RH WIND       PRES   REMARKS
LAWRENCEVILLE  CLOUDY    49  43  80 SE12      30.08F
FLORA*         PTCLDY    51  46  82 SE10      30.05F
FAIRFIELD*     CLOUDY    51  46  82 SE6       30.05F
HARRISBURG*    CLOUDY    53  46  78 SE8       30.06F
ROBINSON*      CLOUDY    47  43  84 SE9       30.09F
CARMI*         CLOUDY    47  44  88 SE7       30.07F
$$

ABBREVIATIONS USED IN REMARKS
   TC - TEMPERATURE IN CELSIUS
  WCI - WIND CHILL INDEX
   HX - HEAT INDEX
  VSB - VISIBILITY
$$





USA.gov is the U.S. government's official web portal to all federal, state and local government web resources and services.